Tracking 31027 objects as of 19-Jul-2025
HD Live streaming from Space Station
objects crossing your sky now

FENGYUN 1C DEB

Track FENGYUN 1C DEB now!
10-day predictions


NORAD ID: 30464
Int'l Code: 1999-025AGB
Perigee: 787.3 km
Apogee: 944.4 km
Inclination: 98.9 °
Period: 102.1 minutes
Semi major axis: 7236 km
RCS: 0.029 m2 (small)
Launch date: May 10, 1999
Source: People's Republic of China (PRC)
Launch site: Taiyaun Space Center, China (TSC)

Note: This is SATELLITE DEBRIS
Your satellite tracking list
STARLINK-3349
Track 1 satellite(s)




NASA's NSSDC Master Catalog

Two Line Element Set (TLE):
1 30464U 99025AGB 25199.40607045  .00000003  00000-0  25502-4 0  9995
2 30464  98.8588 252.0571 0108519 315.1200  66.4316 14.10183291949876
Source of the keplerian elements: AFSPC